Location: Newark
(51.2625°N, 13.3939°E)
Time: 22:29:02
(UTC+00:00)

Vanguard 1 Rocket - All Passes

Search period start: 16 November 2019 00:00
Search period end: 26 November 2019 00:00
Orbit: 651 x 4225 km, 34.3° (Epoch: 14 November)

Date Brightness Start Highest point End Pass type
(mag) Time Alt. Az. Time Alt. Az. Time Alt. Az.
16 Nov - 05:25:12 10° SSW 05:28:40 17° S 05:33:10 10° SE visible
16 Nov - 07:49:03 10° SW 07:53:09 15° SSW 07:58:32 10° SSE daylight
17 Nov - 04:15:50 10° SSW 04:18:08 13° SSE 04:20:45 10° SE visible
17 Nov - 06:38:28 10° SW 06:42:07 16° S 06:46:53 10° SSE daylight
18 Nov - 05:28:23 10° SSW 05:31:21 15° S 05:35:01 10° SSE visible
18 Nov - 07:54:13 10° SSW 07:55:51 11° SSW 07:57:39 10° S daylight
19 Nov - 04:18:41 10° SSW 04:20:46 13° S 04:23:06 10° SSE visible
19 Nov - 06:42:32 10° SSW 06:44:51 12° S 06:47:33 10° S daylight
20 Nov - 05:31:57 10° SSW 05:34:03 12° S 05:36:28 10° SSE visible
21 Nov - 04:21:53 10° SSW 04:23:26 11° S 04:25:08 10° SSE visible
22 Nov - 03:12:44 10° S 03:12:55 10° S 03:13:05 10° S visible
